Location: Newark
(11.0000°N, 10.0000°W)
Time: 16:21:38
(UTC+00:00)

N. Korean satellite - Visible Passes

Search period start: 15 October 2019 00:00
Search period end: 25 October 2019 00:00
Orbit: 455 x 508 km, 97.2° (Epoch: 14 October)

Date Brightness Start Highest point End Pass type
(mag) Time Alt. Az. Time Alt. Az. Time Alt. Az.
15 Oct 10.1 05:32:57 10° ENE 05:35:05 15° E 05:37:13 10° SE visible
15 Oct 10.4 19:00:13 10° WSW 19:01:29 12° W 19:02:45 10° WNW visible
18 Oct 9.1 05:49:25 10° NE 05:52:35 28° E 05:55:47 10° SSE visible
19 Oct 10.4 05:26:04 10° E 05:27:20 11° E 05:28:35 10° ESE visible
19 Oct 10.0 18:51:36 10° SW 18:53:41 15° W 18:55:45 10° WNW visible
21 Oct 7.5 06:06:27 10° NNE 06:10:04 56° E 06:13:42 10° S visible
22 Oct 9.6 05:41:56 10° NE 05:44:48 21° E 05:47:42 10° SSE visible
23 Oct 9.7 18:43:15 10° SSW 18:45:50 20° W 18:48:25 10° NW visible
